| time (UTC) | temp F | wind direction | speed knots | gust knots | rain 1hr in | rain 24hr in | rain mn in | humidity % | barometer mb |
| 20260503050003 | 65 | 301 | 7.0 | 13.0 | 0.00 | 0.00 | 0.00 | 36 | 1014.1 |
| 20260503044525 | 65 | 285 | 3.5 | 13.9 | 0.00 | 0.00 | 0.00 | 38 | 1014.1 |
| 20260503043003 | 65 | 299 | 11.3 | 19.1 | 0.00 | 0.00 | 0.00 | 38 | 1013.6 |
| 20260503041503 | 64 | 301 | 10.4 | 19.1 | 0.00 | 0.00 | 0.00 | 40 | 1013.2 |
| 20260503040004 | 62 | 286 | 7.0 | 12.2 | 0.00 | 0.00 | 0.00 | 45 | 1013.8 |
| 20260503034503 | 62 | 286 | 7.8 | 13.9 | 0.00 | 0.00 | 0.00 | 47 | 1014.0 |
| 20260503033003 | 62 | 280 | 7.8 | 14.8 | 0.00 | 0.00 | 0.00 | 46 | 1013.9 |
| 20260503031503 | 62 | 297 | 10.4 | 20.9 | 0.00 | 0.00 | 0.00 | 45 | 1013.7 |
| 20260503030003 | 61 | 294 | 10.4 | 20.0 | 0.00 | 0.00 | 0.00 | 49 | 1013.6 |
| 20260503024503 | 62 | 273 | 11.3 | 18.2 | 0.00 | 0.00 | 0.00 | 46 | 1013.6 |
| 20260503023024 | 63 | 266 | 12.2 | 21.7 | 0.00 | 0.00 | 0.00 | 43 | 1013.4 |
| 20260503021503 | 65 | 280 | 7.8 | 21.7 | 0.00 | 0.00 | 0.00 | 37 | 1013.0 |
| 20260503020003 | 66 | 274 | 4.3 | 8.7 | 0.00 | 0.00 | 0.00 | 35 | 1012.7 |
| 20260503014503 | 67 | 358 | 1.7 | 3.5 | 0.00 | 0.00 | 0.00 | 33 | 1012.5 |
| 20260503013003 | 68 | 319 | 1.7 | 3.5 | 0.00 | 0.00 | 0.00 | 31 | 1012.4 |
| 20260503011504 | 68 | 20 | 5.2 | 15.6 | 0.00 | 0.00 | 0.00 | 29 | 1012.3 |
| 20260503010003 | 68 | 227 | 4.3 | 10.4 | 0.00 | 0.00 | 0.00 | 32 | 1013.1 |
| 20260503004503 | 68 | 255 | 10.4 | 23.5 | 0.00 | 0.00 | 0.00 | 33 | 1013.3 |
| 20260503003024 | 70 | 256 | 11.3 | 24.3 | 0.00 | 0.00 | 0.00 | 29 | 1012.6 |
| 20260503001524 | 72 | 237 | 7.0 | 16.5 | 0.00 | 0.00 | 0.00 | 23 | 1012.0 |
| 20260503000003 | 73 | 242 | 7.8 | 15.6 | 0.00 | 0.00 | 0.00 | 22 | 1011.8 |
| 20260502234503 | 73 | 282 | 5.2 | 13.0 | 0.00 | 0.00 | 0.00 | 20 | 1011.5 |
| 20260502233003 | 74 | 273 | 7.0 | 14.8 | 0.00 | 0.00 | 0.00 | 20 | 1011.7 |
| 20260502231503 | 74 | 277 | 3.5 | 7.0 | 0.00 | 0.00 | 0.00 | 22 | 1011.8 |
| 20260502230003 | 74 | 252 | 2.6 | 7.8 | 0.00 | 0.00 | 0.00 | 21 | 1012.1 |
| 20260502224503 | 74 | 280 | 1.7 | 3.5 | 0.00 | 0.00 | 0.00 | 21 | 1012.3 |
| 20260502223003 | 74 | 273 | 1.7 | 4.3 | 0.00 | 0.00 | 0.00 | 21 | 1012.6 |
| 20260502221503 | 74 | 298 | 1.7 | 5.2 | 0.00 | 0.00 | 0.00 | 20 | 1012.8 |
| 20260502220003 | 74 | 281 | 3.5 | 7.0 | 0.00 | 0.00 | 0.00 | 20 | 1013.0 |
| 20260502214503 | 74 | 306 | 3.5 | 7.0 | 0.00 | 0.00 | 0.00 | 20 | 1013.0 |
| 20260502213024 | 74 | 290 | 2.6 | 7.0 | 0.00 | 0.00 | 0.00 | 20 | 1013.1 |
| 20260502211503 | 74 | 233 | 2.6 | 5.2 | 0.00 | 0.00 | 0.00 | 19 | 1013.2 |
| 20260502210024 | 74 | 293 | 3.5 | 7.0 | 0.00 | 0.00 | 0.00 | 19 | 1013.3 |
| 20260502204524 | 73 | 218 | 2.6 | 8.7 | 0.00 | 0.00 | 0.00 | 20 | 1013.3 |
| 20260502203003 | 73 | 227 | 3.5 | 6.1 | 0.00 | 0.00 | 0.00 | 19 | 1013.4 |
| 20260502201503 | 74 | 215 | 4.3 | 11.3 | 0.00 | 0.00 | 0.00 | 19 | 1013.4 |
| 20260502200024 | 74 | 264 | 3.5 | 8.7 | 0.00 | 0.00 | 0.00 | 20 | 1013.6 |
| 20260502194503 | 73 | 251 | 3.5 | 8.7 | 0.00 | 0.00 | 0.00 | 20 | 1013.6 |
| 20260502193003 | 72 | 229 | 4.3 | 8.7 | 0.00 | 0.00 | 0.00 | 20 | 1013.8 |
| 20260502191503 | 72 | 241 | 2.6 | 7.0 | 0.00 | 0.00 | 0.00 | 19 | 1014.1 |
| 20260502190004 | 72 | 237 | 1.7 | 4.3 | 0.00 | 0.00 | 0.00 | 17 | 1014.1 |
| 20260502184503 | 71 | 224 | 3.5 | 7.0 | 0.00 | 0.00 | 0.00 | 17 | 1014.3 |
| 20260502183024 | 72 | 244 | 1.7 | 5.2 | 0.00 | 0.00 | 0.00 | 16 | 1014.4 |
| 20260502181503 | 72 | 25 | 2.6 | 7.0 | 0.00 | 0.00 | 0.00 | 15 | 1014.4 |
| 20260502163003 | 66 | 26 | 5.2 | 9.6 | 0.00 | 0.00 | 0.00 | 19 | 1014.5 |
| 20260502161503 | 63 | 34 | 5.2 | 11.3 | 0.00 | 0.00 | 0.00 | 21 | 1014.5 |
| 20260502151503 | 56 | 10 | 6.1 | 11.3 | 0.00 | 0.00 | 0.00 | 25 | 1014.1 |
| 20260502123025 | 50 | 14 | 4.3 | 7.8 | 0.00 | 0.00 | 0.00 | 31 | 1013.3 |
| 20260502121503 | 50 | 15 | 4.3 | 7.8 | 0.00 | 0.00 | 0.00 | 30 | 1013.2 |
| 20260502114524 | 51 | 14 | 7.0 | 10.4 | 0.00 | 0.00 | 0.00 | 28 | 1013.3 |
| 20260502113004 | 52 | 12 | 6.1 | 10.4 | 0.00 | 0.00 | 0.00 | 28 | 1013.2 |
| 20260502111524 | 52 | 17 | 4.3 | 7.8 | 0.00 | 0.00 | 0.00 | 28 | 1013.3 |
| 20260502110003 | 52 | 5 | 7.0 | 10.4 | 0.00 | 0.00 | 0.00 | 28 | 1013.3 |
| 20260502104503 | 52 | 13 | 5.2 | 8.7 | 0.00 | 0.00 | 0.00 | 28 | 1013.2 |
| 20260502103003 | 52 | 12 | 5.2 | 9.6 | 0.00 | 0.00 | 0.00 | 28 | 1013.1 |
| 20260502101503 | 52 | 9 | 6.1 | 9.6 | 0.00 | 0.00 | 0.00 | 29 | 1013.2 |
| 20260502091524 | 54 | 11 | 4.3 | 7.8 | 0.00 | 0.00 | 0.00 | 26 | 1013.5 |
| 20260502071524 | 59 | 82 | 2.6 | 5.2 | 0.00 | 0.00 | 0.00 | 21 | 1014.1 |
| 20260502070024 | 60 | 347 | 2.6 | 5.2 | 0.00 | 0.00 | 0.00 | 21 | 1013.9 |
| 20260502064503 | 60 | 54 | 5.2 | 10.4 | 0.00 | 0.00 | 0.00 | 19 | 1013.9 |
| 20260502063003 | 59 | 66 | 3.5 | 7.0 | 0.00 | 0.00 | 0.00 | 20 | 1013.9 |
| 20260502061503 | 59 | 35 | 3.5 | 7.0 | 0.00 | 0.00 | 0.00 | 25 | 1013.9 |
| 20260502060003 | 60 | 21 | 2.6 | 5.2 | 0.00 | 0.00 | 0.00 | 25 | 1013.9 |
| 20260502054524 | 61 | 25 | 2.6 | 5.2 | 0.00 | 0.00 | 0.00 | 26 | 1014.0 |
| 20260502053024 | 62 | 36 | 3.5 | 6.1 | 0.00 | 0.00 | 0.00 | 22 | 1014.0 |
| 20260502051503 | 63 | 71 | 3.5 | 7.0 | 0.00 | 0.00 | 0.00 | 18 | 1013.9 |